This is the latest recevied weather packets stored in our database for station/object K0NV. If no packets are shown the sender has not sent any weather packets the latest 1 day(s).
| Time | Temp. | Humidity | Pressure | Rain* | Wind** | Luminosity | Snow |
|---|---|---|---|---|---|---|---|
| 1778026087 | 7.78° C | 99% | 1010.9 hPa | 0 mm | - | 4 W/m² | - |
| 1778025785 | 7.78° C | 99% | 1011 hPa | 0 mm | - | 6 W/m² | - |
| 1778025179 | 7.78° C | 99% | 1010.4 hPa | 0 mm | - | 9 W/m² | - |
| 1778023665 | 7.78° C | 99% | 1010.7 hPa | 0 mm | - | 18 W/m² | - |
| 1778023362 | 7.78° C | 99% | 1011.1 hPa | 0 mm | - | 16 W/m² | - |
| 1778020332 | 7.78° C | 95% | 1010.5 hPa | 1.27 mm | - | 23 W/m² | - |
| 1778019422 | 8.33° C | 95% | 1010.4 hPa | 0 mm | - | 26 W/m² | - |
| 1778019118 | 8.33° C | 96% | 1010.4 hPa | 0 mm | - | 15 W/m² | - |
| 1778017606 | 8.89° C | 93% | 1010.1 hPa | 0 mm | - | 32 W/m² | - |
| 1778017303 | 8.89° C | 93% | 1010.2 hPa | 0 mm | - | 44 W/m² | - |
| 1778016697 | 8.89° C | 92% | 1010 hPa | 0 mm | - | 54 W/m² | - |
| 1778016091 | 8.89° C | 92% | 1010.4 hPa | 0 mm | - | 28 W/m² | - |
| 1778015485 | 8.89° C | 92% | 1010 hPa | 0 mm | - | 42 W/m² | - |
| 1778014878 | 8.89° C | 91% | 1010.1 hPa | 0 mm | - | 51 W/m² | - |
| 1778013668 | 9.44° C | 91% | 1010.1 hPa | 0 mm | - | 82 W/m² | - |
| 1778012757 | 8.89° C | 95% | 1010.3 hPa | 0 mm | - | 77 W/m² | - |
| 1778009726 | 10° C | 97% | 1010.1 hPa | 0 mm | - | 42 W/m² | - |
| 1778008819 | 10.56° C | 95% | 1010.1 hPa | 0 mm | - | 57 W/m² | - |
| 1778008517 | 10.56° C | 94% | 1010.2 hPa | 0 mm | - | 46 W/m² | - |
| 1778007909 | 10.56° C | 94% | 1009.7 hPa | 0 mm | - | 72 W/m² | - |
| 1778006089 | 11.67° C | 88% | 1009.5 hPa | 0 mm | - | 66 W/m² | - |
| 1778002146 | 12.78° C | 86% | 1009 hPa | 0 mm | - | 105 W/m² | - |
| 1778001844 | 12.78° C | 86% | 1009.1 hPa | 0 mm | - | 158 W/m² | - |
| 1778000634 | 12.78° C | 86% | 1009.2 hPa | 0 mm | - | 288 W/m² | - |
| 1778000329 | 12.78° C | 87% | 1009.4 hPa | 0 mm | - | 284 W/m² | - |
* Rain latest hour (hover to see other rain measurements)
** Current wind speed in m/s (hover to see current wind gust speed)